Temp
24 24 24 24 24 24 23 23 23 22 22 22 21 21 21 21 21 20 20 20 20 20 20 20 20 20 20 20 20 20 20 20 19 19 19 19 19 19 19 19 19 19
24 24 24 24 24 23 23 23 23 22 22 22 21 21 21 21 21 21 21 21 21 20 20 20 20 20 20 20 20 20 20 20 20 20 19 19 19 19 19 19 19 19
24 24 24 24 24 23 23 23 23 22 22 22 21 21 21 21 21 21 21 21 21 20 20 20 20 20 20 20 20 20 20 20 20 20 19 19 19 19 19 19 19 19
24 24 25 24 24 24 23 23 22 22 22 22 21 21 21 21 21 20 21 21 20 20 20 20 20 20 20 20 20 20 20 20 20 20 20 19 19 19 19 19 19 19
24 25 25 24 24 23 23 23 22 22 22 22 21 21 21 21 21 21 21 21 21 21 21 21 21 20 20 20 20 20 20 20 20 20 20 19 19 19 19 19 19 19
25 24 24 24 24 23 23 23 22 22 22 22 21 21 21 21 21 21 21 21 21 21 21 21 21 21 20 20 20 20 20 20 20 20 19 19 19 19 19 19 19 19
24 24 24 24 23 23 23 22 22 22 22 22 22 21 21 21 21 21 21 21 21 21 21 21 21 21 21 20 20 20 20 20 20 20 20 20 19 19 19 19 19 19
25 24 24 23 23 23 23 22 22 22 22 22 22 21 21 21 21 21 21 21 21 21 21 21 21 21 21 21 20 20 20 20 20 20 20 20 19 19 19 19 19 19
24 23 23 23 23 23 23 22 22 22 22 22 22 22 21 21 21 21 21 21 21 21 21 21 21 21 21 21 21 20 20 20 20 20 20 20 20 19 19 19 19 19
22 22 22 23 23 23 23 22 22 22 22 22 22 22 22 21 21 21 21 21 21 21 21 21 21 21 21 21 21 20 20 20 20 20 20 20 20 20 19 19 19 19
21 21 22 23 23 23 23 22 22 22 22 22 22 22 22 22 22 22 22 22 21 22 21 21 21 21 21 21 21 21 21 21 21 20 20 20 20 20 19 19 19 19
21 23 23 23 23 23 23 23 23 22 22 22 22 22 22 22 22 22 22 22 22 22 22 22 22 21 21 21 21 21 21 21 21 20 20 20 20 20 20 19 19 19
22 23 23 22 22 23 23 23 23 22 22 22 22 22 22 22 22 22 22 22 22 22 22 22 22 21 21 21 21 21 21 21 21 20 20 20 20 20 20 19 19 19
21 22 22 21 21 22 23 22 23 22 22 22 22 22 22 22 22 22 22 22 22 22 22 22 21 21 21 21 21 21 21 21 21 21 21 20 20 20 20 19 19 19
20 20 21 20 21 22 22 22 22 22 22 22 22 22 23 22 22 23 23 22 22 22 22 21 21 21 21 21 21 21 21 21 21 21 21 20 20 20 20 19 19 19
19 20 20 20 20 21 21 22 22 22 22 22 22 22 23 22 22 22 22 22 22 22 21 21 21 21 21 21 21 21 21 21 21 21 21 20 20 20 20 20 19 19
19 19 19 20 20 20 21 22 21 20 21 22 22 22 22 22 22 22 22 22 22 22 21 21 21 21 21 21 21 21 21 21 21 21 21 20 20 20 20 20 20 19
19 19 19 19 19 20 21 22 21 20 21 21 21 22 22 22 22 22 22 22 22 22 21 21 21 21 21 21 21 21 21 21 21 21 20 20 20 20 20 19 19 19
19 18 19 19 19 20 22 22 21 20 20 20 21 22 22 22 22 22 22 22 22 22 22 21 21 21 21 21 21 21 21 21 21 20 20 20 20 19 19 19 19 19
19 19 19 19 19 20 21 22 21 20 19 19 20 21 22 22 22 22 22 22 22 22 22 22 22 21 21 21 21 21 21 21 20 20 20 20 19 19 19 19 19 18
19 19 20 19 19 19 20 20 20 20 20 19 19 20 21 22 22 22 22 22 22 22 22 22 22 22 21 21 21 21 21 20 20 20 20 19 19 19 19 19 18 18
19 19 19 19 19 19 19 20 21 20 20 19 19 20 21 22 22 22 22 22 22 22 22 22 22 22 21 21 21 20 20 20 20 19 19 19 19 19 19 18 18 17
18 18 18 18 19 19 19 20 20 20 20 20 20 20 21 22 22 22 22 22 22 22 22 22 22 21 21 20 20 19 19 19 19 19 19 19 19 19 18 17 17 17
18 18 18 18 19 20 20 20 20 20 20 20 20 20 21 22 22 22 23 23 22 22 21 21 21 21 20 19 19 19 19 19 19 19 18 18 18 18 17 17 17 17
18 18 19 19 19 20 20 20 20 20 20 20 20 21 21 22 22 22 22 22 21 21 20 20 20 20 19 19 19 19 19 19 18 18 18 18 17 17 17 17 17 17
18 19 19 20 20 20 19 19 19 20 20 19 20 20 21 21 21 21 21 20 20 20 20 20 20 19 19 19 19 19 18 18 17 17 17 17 17 16 16 16 16 16
Height
800 802 803 805 806 808 809 810 811 812 813 814 815 816 817 818 819 820 821 821 822 822 822 822 822 823 823 823 823 823 823 823 823 823 823 823 823 823 824 824 823 823
798 800 802 803 804 806 807 808 809 810 811 812 813 814 815 816 817 819 819 820 820 821 821 821 821 821 822 822 823 823 823 823 822 822 822 821 821 822 822 822 822 822
796 798 799 800 802 803 805 807 808 810 811 812 813 813 814 815 816 817 818 818 819 820 820 820 820 820 821 821 822 822 822 822 822 821 821 820 820 820 820 821 821 821
794 796 797 798 800 802 804 805 807 809 810 811 812 813 813 814 815 816 817 817 818 819 819 819 819 819 819 820 820 821 821 821 821 821 820 819 818 818 819 819 820 820
792 793 795 797 798 800 802 804 806 808 809 811 812 813 813 814 814 815 815 816 816 817 818 818 818 818 818 818 818 819 819 820 820 820 819 818 817 817 817 817 818 818
790 792 793 796 798 800 801 803 805 806 808 810 811 812 813 813 813 813 814 814 815 816 816 817 817 817 817 817 817 817 817 818 818 818 818 817 816 815 815 815 816 816
787 790 792 796 798 800 801 802 803 805 806 808 809 810 811 812 812 812 812 813 813 814 815 815 816 816 816 815 815 815 816 816 816 816 816 815 814 813 813 813 813 814
783 786 791 796 799 800 801 802 802 803 804 805 806 808 809 810 810 810 810 811 811 811 812 813 814 814 814 814 814 814 814 814 815 814 814 813 812 811 811 811 811 812
781 787 792 796 799 800 801 801 801 802 803 803 804 806 807 807 808 808 808 809 809 809 810 811 812 812 812 812 812 812 812 812 812 812 811 811 810 809 809 809 809 809
785 793 796 797 798 799 799 800 801 802 802 802 803 804 804 805 805 806 806 807 807 807 807 808 809 810 810 810 810 810 809 809 809 809 809 809 808 807 807 807 807 807
786 793 795 794 795 796 797 799 800 800 800 800 801 802 803 803 803 803 804 804 804 804 805 805 806 807 807 807 808 807 807 807 807 807 806 806 806 805 804 804 805 805
784 786 788 790 792 793 795 797 798 799 800 800 801 801 801 801 801 801 801 801 802 802 802 802 803 804 804 805 805 805 805 805 804 804 804 803 803 802 802 802 802 802
784 786 789 794 795 794 796 796 797 798 799 800 801 800 799 799 799 799 799 799 799 799 800 800 800 801 802 803 803 803 803 802 802 801 801 801 800 799 799 799 800 800
781 786 791 796 798 798 798 797 797 796 796 798 799 798 797 797 796 797 797 797 797 797 797 798 798 799 800 801 801 801 801 800 799 799 798 798 797 797 797 797 798 798
774 783 789 792 795 796 796 795 795 795 793 793 794 795 795 795 794 795 795 795 795 795 796 796 797 798 798 799 799 798 798 798 797 797 796 795 795 794 795 795 795 795
773 781 786 787 788 789 791 792 793 793 790 789 790 792 792 792 793 793 793 793 793 793 794 794 795 796 796 796 796 796 796 795 794 794 793 793 792 792 792 792 793 793
773 778 781 783 783 784 786 787 788 788 787 787 787 788 789 790 790 790 790 791 791 791 792 792 793 793 794 794 794 793 793 792 792 791 791 790 790 789 790 790 790 790
768 772 773 773 774 776 778 778 779 780 782 783 784 785 786 787 788 788 788 788 788 789 790 790 790 791 791 791 791 790 790 790 789 789 788 788 787 787 788 788 787 787
760 764 766 766 766 768 770 770 773 776 778 780 781 783 784 785 785 786 786 786 786 787 787 788 788 789 789 789 788 788 788 787 787 786 786 785 785 785 786 785 785 784
752 756 759 761 761 763 765 768 771 773 776 778 780 781 781 781 782 783 783 783 784 784 785 786 786 786 786 786 786 786 786 785 784 784 783 783 783 783 783 782 782 782
749 751 752 754 758 763 766 769 771 772 773 776 777 778 778 778 779 780 780 781 782 782 783 783 783 784 784 783 784 783 783 783 782 782 782 781 781 781 781 780 779 780
746 748 751 755 761 766 769 770 770 769 770 772 774 775 775 775 776 776 777 778 779 780 780 781 781 781 781 781 781 781 781 781 781 780 780 780 779 779 778 777 777 777
744 748 754 760 764 765 766 767 766 766 767 769 771 772 772 772 773 773 775 776 777 777 778 778 779 779 780 780 779 779 779 779 779 779 779 778 778 777 776 775 775 775
743 748 754 759 762 762 763 763 763 764 765 766 768 768 769 769 770 771 773 774 774 775 776 776 777 778 778 778 778 778 778 778 778 777 777 777 776 775 774 774 774 774
743 748 752 755 756 757 759 760 761 761 762 764 765 766 767 767 768 769 770 771 772 774 775 776 777 777 777 777 777 777 776 776 777 776 776 775 774 773 772 772 772 772
742 746 748 750 752 754 757 760 761 761 763 764 765 765 765 765 765 766 767 768 769 770 772 774 775 775 775 776 775 775 775 775 775 775 774 773 772 771 771 770 770 770
Wind_Speed
29 28 27 24 22 21 20 19 18 18 17 17 16 14 13 12 12 12 10 9 9 9 8 7 7 7 6 6 6 6 6 6 6 5 5 6 6 7 8 9 9 9
31 29 27 24 23 22 21 20 19 18 18 17 16 14 13 14 13 12 11 11 11 10 8 8 8 7 6 6 7 8 8 8 8 7 7 8 8 8 9 10 11 11
32 30 27 26 25 24 22 20 19 18 17 16 15 14 14 14 13 13 12 11 10 10 9 9 8 8 7 7 8 10 11 11 11 10 10 10 10 10 10 11 12 12
34 31 28 27 26 24 22 20 19 18 17 16 15 14 14 14 13 13 13 11 10 10 9 9 9 9 9 9 9 10 11 12 12 11 12 12 11 12 11 11 13 13
35 31 29 28 26 24 21 20 20 19 18 17 15 14 15 15 15 14 13 12 11 10 9 8 8 9 10 11 11 11 11 12 12 12 13 13 13 13 13 13 14 15
34 31 30 29 27 23 21 20 20 19 18 17 15 15 16 16 16 15 14 13 12 10 9 9 9 9 10 11 11 12 12 12 13 13 14 15 15 15 14 14 15 16
35 32 31 30 27 23 21 19 19 20 19 17 15 16 17 17 17 16 15 14 13 12 11 10 11 11 11 11 12 12 13 13 14 15 16 16 16 16 15 16 17 18
37 34 32 29 26 23 21 20 20 21 20 18 17 17 17 18 18 17 16 15 14 14 13 13 13 13 13 13 14 15 15 15 15 16 18 18 18 17 16 16 17 19
36 33 31 29 26 24 22 21 21 21 20 19 18 18 18 19 19 17 16 16 15 15 14 15 16 16 16 16 17 18 19 18 18 18 18 19 19 18 17 16 16 19
28 24 26 27 27 25 23 22 21 21 21 20 19 18 19 20 19 18 17 17 17 17 17 17 18 17 17 17 17 18 18 17 17 16 17 18 19 18 17 16 17 19
25 24 27 29 28 26 24 23 22 22 22 20 19 19 20 21 20 19 19 19 19 19 19 18 16 15 15 14 14 13 13 14 14 15 16 16 17 18 17 17 17 19
29 32 31 31 30 28 25 24 23 23 22 20 20 21 21 20 19 19 20 20 20 19 18 16 15 14 13 12 11 11 12 13 14 15 15 16 16 17 17 17 18 19
31 31 29 28 28 27 24 24 24 23 21 19 21 23 22 19 18 19 20 20 19 18 17 17 16 15 14 13 12 12 13 14 14 15 15 16 16 16 17 18 19 19
31 27 24 24 25 25 25 25 25 22 20 21 24 24 22 19 18 19 20 19 19 18 18 18 17 15 14 14 14 14 15 16 15 14 15 16 16 17 18 19 20 20
32 26 25 25 26 27 28 28 26 23 22 26 29 26 23 21 20 20 20 20 19 18 18 18 17 16 16 16 16 16 17 17 15 15 16 17 17 17 18 19 20 20
31 26 27 28 29 31 31 28 26 26 27 30 31 28 25 24 23 22 22 20 18 16 16 16 17 17 17 17 17 18 18 18 18 17 16 17 17 17 18 18 19 20
30 30 31 30 31 32 32 28 27 32 33 32 32 31 28 26 25 25 24 20 16 14 14 15 16 17 17 18 18 18 18 19 19 19 17 17 18 18 18 19 19 20
35 37 37 36 35 35 36 34 31 32 33 34 35 33 30 28 28 27 25 20 17 16 17 17 18 18 17 18 18 18 19 20 20 19 18 18 18 19 21 21 21 20
41 40 39 39 38 39 40 37 32 30 32 35 35 34 32 30 30 29 25 20 19 19 19 20 20 19 18 18 19 19 19 20 19 19 18 19 20 21 23 24 24 22
43 42 40 40 40 41 41 36 31 31 32 33 34 34 33 31 31 30 25 22 21 20 20 21 21 20 20 19 19 20 20 20 19 18 18 19 21 22 24 25 24 22
43 43 43 42 39 34 31 29 29 31 33 34 33 34 34 33 32 30 26 24 21 20 20 21 21 20 20 21 22 21 20 18 17 16 17 20 22 23 24 24 22 20
42 41 39 35 29 26 26 28 30 32 34 34 33 33 34 32 30 29 27 23 20 20 21 21 21 20 21 22 22 19 16 14 14 15 18 20 22 24 24 22 20 18
39 37 32 26 25 29 32 33 32 33 35 34 32 33 32 31 30 29 25 22 21 21 21 20 20 21 21 20 17 14 12 12 14 16 18 19 20 21 21 20 19 18
36 32 30 27 28 33 34 33 33 33 34 33 32 33 33 31 30 27 24 22 22 20 19 18 19 18 16 14 11 11 13 15 16 16 16 17 18 19 19 19 19 17
32 29 30 33 36 36 35 34 33 33 32 32 32 32 31 29 28 25 23 20 17 15 14 15 15 13 11 10 10 12 14 15 14 14 15 17 19 19 19 18 17 16
28 31 36 39 39 36 31 30 28 27 25 24 25 27 27 26 24 22 20 17 14 12 12 12 12 11 10 11 12 12 13 12 12 14 16 17 18 17 17 18 17 17
Wind_Direction
214 213 212 213 215 215 214 213 212 211 210 207 207 210 208 202 197 196 207 224 227 224 221 223 233 237 235 241 254 260 258 257 259 263 267 272 273 270 269 267 267 273
214 212 213 214 212 213 216 218 217 213 211 210 213 215 211 207 209 214 224 232 231 226 226 235 236 228 229 242 255 260 261 262 264 265 266 275 284 282 278 276 273 275
211 211 212 212 210 211 215 217 216 214 214 216 219 221 215 212 213 215 221 225 225 227 232 239 234 228 235 249 260 265 264 263 265 265 265 270 280 282 281 280 275 272
209 211 213 212 210 212 214 212 212 213 215 219 222 220 214 209 207 208 216 222 225 231 239 244 241 238 242 247 253 259 259 261 263 262 262 266 274 278 278 278 274 271
208 211 212 211 210 211 211 210 210 211 215 219 218 214 209 207 207 212 219 224 227 234 240 244 244 244 246 246 246 251 256 261 265 265 263 268 276 278 275 274 272 271
209 211 211 211 210 210 209 208 209 210 215 216 211 209 209 211 215 218 223 227 230 234 238 240 244 245 246 244 243 249 258 265 271 271 269 272 279 279 275 272 270 270
208 210 210 210 210 209 209 208 210 213 215 213 208 210 214 219 222 222 227 234 236 238 241 245 251 254 255 253 252 255 261 267 271 272 272 275 279 279 277 273 271 270
207 207 208 209 209 209 211 211 212 214 213 211 210 214 220 225 226 226 233 240 241 244 250 256 261 265 267 267 266 266 266 266 268 270 273 276 278 279 281 278 275 272
205 203 203 206 208 210 212 214 214 215 215 215 216 220 224 226 227 230 238 244 247 251 257 262 268 271 272 272 271 270 268 267 270 273 275 277 278 280 285 285 281 276
193 197 203 206 210 213 215 216 217 219 220 220 221 225 227 227 229 234 239 245 249 252 258 264 268 270 271 272 272 271 270 269 271 274 276 277 278 280 284 286 284 280
176 195 208 210 212 216 217 218 221 223 224 223 225 230 231 229 231 235 240 246 249 253 260 264 266 267 267 268 269 270 271 271 273 275 277 278 278 279 282 283 284 283
180 199 209 213 215 216 218 221 224 227 228 227 230 234 234 232 236 242 248 252 254 257 261 262 262 263 262 262 266 270 271 274 276 278 281 282 282 282 282 281 282 282
188 202 209 219 222 220 222 225 226 230 233 233 236 237 235 236 242 249 253 253 252 253 255 255 258 258 256 259 269 274 273 276 279 281 283 285 287 287 285 282 282 281
192 202 208 223 229 227 230 230 228 230 228 229 236 238 235 238 244 248 248 245 244 247 250 252 253 251 250 259 270 274 272 273 278 282 282 284 287 289 288 284 282 281
190 194 199 217 227 228 231 229 229 231 223 222 232 236 236 240 246 247 242 238 239 244 248 249 248 249 253 261 267 268 267 269 276 279 279 282 285 287 288 286 283 282
180 186 197 215 225 227 226 224 230 238 233 229 233 236 239 243 246 241 234 232 235 240 244 247 248 252 255 258 261 264 266 268 273 278 279 281 283 284 285 284 282 283
173 185 198 214 223 224 220 220 232 240 238 237 237 237 240 244 241 232 228 230 236 241 248 250 252 254 254 256 260 263 267 269 271 276 278 280 281 281 280 280 280 282
178 188 198 210 217 216 213 219 231 237 238 240 239 238 240 240 234 228 228 234 243 250 253 254 256 259 259 263 267 268 270 270 270 273 277 279 280 280 280 279 278 280
182 193 204 211 214 211 212 220 231 235 237 241 240 238 239 235 230 228 232 240 248 251 253 257 262 266 269 272 276 278 277 272 271 274 277 279 280 281 281 280 278 279
184 194 205 211 213 212 212 220 230 235 238 242 240 238 236 232 229 230 235 243 249 251 255 262 268 271 275 279 281 284 282 276 272 274 277 279 281 281 280 279 279 280
188 196 205 209 211 212 214 223 234 237 237 240 240 237 235 233 231 231 237 243 249 254 258 264 271 276 279 279 280 285 287 280 275 276 280 282 282 282 280 279 279 281
192 199 205 207 206 210 222 236 243 240 236 237 240 238 235 234 232 233 238 245 252 258 262 267 275 280 279 278 281 285 284 280 279 282 284 283 282 282 281 279 279 284
195 197 198 201 207 213 224 238 243 239 236 237 238 237 235 232 233 235 240 248 254 259 264 270 278 282 281 278 278 278 278 284 288 287 284 281 280 280 278 277 282 288
197 191 188 196 209 217 228 240 242 237 236 237 236 236 235 234 235 239 243 250 256 260 266 274 280 282 278 271 270 276 283 288 287 283 280 278 277 276 276 280 286 288
193 185 187 199 210 218 231 241 240 237 239 239 237 237 236 237 238 239 243 248 250 254 268 281 280 272 264 265 276 285 287 285 279 274 273 275 277 279 282 286 288 287
185 183 191 203 211 220 234 242 242 243 244 243 239 237 237 239 240 238 236 234 228 236 259 272 265 256 262 276 286 287 283 278 272 270 272 276 280 284 287 290 291 291